[[{"header":{"parameterUnit":"m.s-1","parameterCategory":1,"la1":30.2991,"la2":30.254,"lo1":-89.0895,"lo2":-89.0444,"dy":0.0017,"dx":0.0017,"nx":28,"ny":28,"refTime":"2024-04-26T09:00:00:Z","depth":0,"parameterNumber":2,"parameterNumberName":"U-component_of_WINDS"},"data":[0,0,0,0,0,0,0,0,0,0,0,0,0,0,0,0,0,0,0,0,0,0,0,0,0,0,0,0,0,0,0,0,0,0,0,0,0,0,0,0,0,0,0,0,0,0,0,0,0,0,0,0,0,0,0,0,0,0,-6.2867,-6.2868,0,-6.3008,-6.301,-6.3011,-6.3038,-6.3037,-6.3036,-6.3035,-6.3176,-6.318,-6.3185,0,0,0,0,0,0,0,0,0,0,0,0,0,-6.2617,-6.2621,-6.2867,-6.2868,-6.287,-6.3008,-6.301,-6.3012,-6.3038,-6.3037,-6.3035,-6.3034,-6.3174,-6.318,-6.3185,0,0,0,0,0,0,0,0,0,0,0,0,0,-6.2738,-6.2623,-6.2866,-6.29,-6.2905,-6.3008,-6.301,-6.3012,-6.3038,-6.3037,-6.3035,-6.3034,-6.3172,-6.3179,-6.3186,-6.3264,0,0,-6.3208,-6.3211,0,0,0,0,0,0,0,0,-6.2732,-6.2748,-6.2893,-6.2898,-6.2903,-6.3004,-6.2974,-6.3097,-6.3039,-6.2987,-6.3035,-6.3033,-6.312,-6.3131,-6.3161,-6.3271,-6.3277,-6.3209,-6.3213,-6.3216,-6.3218,0,0,0,0,0,0,0,-6.2723,-6.2742,-6.2923,-6.2895,-6.2901,-6.2907,-6.2923,-6.2997,-6.3061,-6.2992,-6.2994,-6.3011,-6.3122,-6.3154,-6.3165,-6.3279,-6.3209,-6.3215,-6.322,-6.3222,-6.346,-6.3462,0,0,0,0,0,0,-6.2709,-6.2734,-6.2918,-6.2927,-6.2812,-6.2913,-6.293,-6.2973,-6.306,-6.3072,-6.3012,-6.3011,-6.3143,-6.3156,-6.317,-6.3266,-6.3216,-6.3223,-6.3227,-6.3459,-6.3461,-6.3463,0,0,0,0,0,0,-6.2704,-6.2725,-6.2912,-6.2831,-6.2856,-6.2919,-6.2967,-6.2977,-6.3009,-6.3076,-6.3087,-6.3033,-6.3142,-6.3159,-6.3241,-6.3271,-6.3226,-6.3233,-6.3456,-6.3459,-6.3462,-6.346,0,0,0,0,0,0,-6.2696,-6.2723,-6.2754,-6.2832,-6.286,-6.2982,-6.2969,-6.2981,-6.3022,-6.3022,-6.3099,-6.311,-6.3142,-6.323,-6.3248,-6.328,-6.3238,-6.3454,-6.3458,-6.3461,-6.3457,-6.3462,-6.3467,0,0,0,0,0,-6.2687,-6.2747,-6.2755,-6.2777,-6.29,-6.2983,-6.2999,-6.3036,-6.3024,-6.3055,-6.3098,-6.3107,-6.3266,-6.3238,-6.3259,-6.3294,-6.3452,-6.3456,-6.3461,-6.3455,-6.3461,-6.3466,0,0,0,0,0,0,-6.2668,-6.2757,-6.2768,-6.2854,-6.2911,-6.2988,-6.3028,-6.3042,-6.3102,-6.31,-6.3143,-6.316,-6.3238,-6.3275,-6.3242,-6.3374,-6.3358,-6.3367,-6.3347,-6.3353,-6.3358,-6.3346,-6.3244,0,0,0,0,0,-6.2675,-6.2736,-6.2811,-6.288,-6.2908,-6.2963,-6.3001,-6.3025,-6.3085,-6.3109,-6.3158,-6.3215,-6.3278,-6.3318,-6.338,-6.3464,-6.348,-6.3499,-6.3503,-6.3507,-6.3513,-6.3559,-6.3568,-6.3478,-6.3478,-6.3478,0,0,-6.2687,-6.2744,-6.278,-6.2877,-6.2924,-6.2986,-6.2983,-6.3048,-6.3094,-6.3118,-6.3198,-6.3237,-6.3303,-6.3386,-6.3425,-6.3419,-6.3542,-6.3512,-6.3515,-6.3519,-6.3565,-6.3573,-6.3581,-6.3481,-6.348,-6.348,0,0,-6.2741,-6.2791,-6.2854,-6.2902,-6.2974,-6.3011,-6.3026,-6.3101,-6.3128,-6.3209,-6.3229,-6.3284,-6.3392,-6.3438,-6.3476,-6.3551,-6.3561,-6.357,-6.3592,-6.3638,-6.3645,-6.3651,-6.3676,-6.3685,-6.3576,-6.3576,-6.3577,0,-6.2747,-6.2842,-6.2884,-6.2949,-6.2991,-6.3019,-6.3082,-6.3126,-6.3214,-6.3242,-6.3234,-6.337,-6.3417,-6.3511,-6.353,-6.3561,-6.3578,-6.3559,-6.3641,-6.3648,-6.3654,-6.3678,-6.3688,-6.3577,-6.3577,-6.3577,-6.3577,0,-6.2845,-6.2911,-6.2953,-6.3038,-6.3086,-6.315,-6.32,-6.3243,-6.3264,-6.3302,-6.3384,-6.3442,-6.3516,-6.3541,-6.3561,-6.3638,-6.3632,-6.3632,-6.3616,-6.3662,-6.3686,-6.3696,-6.3578,-6.3577,-6.3577,-6.3577,0,0,-6.2887,-6.2998,-6.3012,-6.3051,-6.3134,-6.3185,-6.3251,-6.3325,-6.336,-6.342,-6.3475,-6.3567,-6.3568,-6.3611,-6.3638,-6.3678,-6.3732,-6.3673,-6.3676,-6.368,-6.3819,-6.3816,-6.3826,-6.3741,-6.3743,-6.3744,-6.3813,0,-6.2949,-6.3068,-6.3108,-6.3205,-6.3266,-6.3295,-6.3352,-6.3408,-6.3446,-6.3502,-6.3544,-6.3607,-6.3605,-6.3631,-6.3672,-6.3716,-6.376,-6.3713,-6.379,-6.3792,-6.3769,-6.3839,-6.3836,-6.3897,-6.3822,-6.3824,-6.3825,0,-6.3037,-6.31,-6.3203,-6.3279,-6.3306,-6.3357,-6.3428,-6.3482,-6.3547,-6.3572,-6.3621,-6.3646,-6.3714,-6.3698,-6.3792,-6.3759,-6.3794,-6.3821,-6.3824,-6.383,-6.3809,-6.3844,-6.3917,-6.3925,-6.384,-6.3839,-6.3838,0,-6.3054,-6.3166,-6.3242,-6.3275,-6.3366,-6.3401,-6.344,-6.3504,-6.3546,-6.3609,-6.3636,-6.3706,-6.3743,-6.3796,-6.3838,-6.3822,-6.3929,-6.3915,-6.3949,-6.3948,-6.3967,-6.3965,-6.4045,-6.3995,-6.3995,-6.3995,-6.3994,0,-6.3117,-6.3179,-6.3251,-6.3298,-6.3368,-6.3415,-6.3482,-6.3524,-6.3581,-6.3635,-6.3665,-6.3715,-6.3769,-6.3827,-6.386,-6.3933,-6.395,-6.3971,-6.3978,-6.3967,-6.3964,-6.3987,-6.3983,-6.3997,-6.3996,-6.3996,-6.3996,0,-6.3147,-6.3198,-6.3283,-6.3364,-6.3385,-6.3433,-6.3502,-6.3548,-6.3588,-6.3657,-6.3675,-6.3738,-6.3807,-6.3856,-6.3945,-6.3967,-6.4045,-6.4054,-6.4023,-6.4026,-6.4057,-6.4052,-6.4152,-6.4167,-6.4109,-6.411,-6.411,0,-6.3182,-6.3231,-6.3317,-6.3356,-6.3396,-6.3459,-6.3503,-6.3552,-6.3596,-6.3675,-6.3711,-6.3783,-6.3842,-6.3952,-6.4005,-6.4073,-6.4082,-6.4112,-6.4092,-6.4078,-6.4079,-6.4075,-6.4079,-6.4114,-6.4114,-6.4115,-6.4115,0,-6.3239,-6.3263,-6.3325,-6.3397,-6.3448,-6.3507,-6.3565,-6.3596,-6.3655,-6.3703,-6.3775,-6.3821,-6.3913,-6.3984,-6.4058,-6.4097,-6.4116,-6.4122,-6.4133,-6.4119,-6.4099,-6.4108,-6.4028,-6.4118,-6.4118,-6.4118,-6.4117,-6.4117,-6.3271,-6.3315,-6.3383,-6.3452,-6.3502,-6.3556,-6.3604,-6.3651,-6.3712,-6.3791,-6.3817,-6.3891,-6.3956,-6.4058,-6.4099,-6.4157,-6.4155,-6.4172,-6.4175,-6.4178,-6.4176,-6.4092,-6.4171,-6.4171,-6.4171,-6.4171,-6.4171,0,-6.3327,-6.3373,-6.3436,-6.3518,-6.3572,-6.3588,-6.3654,-6.3697,-6.3763,-6.3823,-6.3882,-6.3964,-6.4034,-6.4093,-6.4165,-6.42,-6.421,-6.4217,-6.4213,-6.4222,-6.4175,-6.4158,-6.4207,-6.4207,-6.4207,-6.4207,-6.4207,-6.4207,-6.3363,-6.3438,-6.347,-6.3571,-6.3616,-6.369,-6.3726,-6.3777,-6.3825,-6.3916,-6.3974,-6.4014,-6.4073,-6.415,-6.4214,-6.423,-6.4254,-6.4258,-6.4275,-6.423,-6.4225,-6.4221,-6.4204,-6.4263,-6.4263,-6.4317,-6.4317,-6.4317]},{"header":{"parameterUnit":"m.s-1","parameterCategory":1,"la1":30.2991,"la2":30.254,"lo1":-89.0895,"lo2":-89.0444,"dy":0.0017,"dx":0.0017,"nx":28,"ny":28,"refTime":"2024-04-26T09:00:00:Z","depth":0,"parameterNumber":3,"parameterNumberName":"V-component_of_WINDS"},"data":[0,0,0,0,0,0,0,0,0,0,0,0,0,0,0,0,0,0,0,0,0,0,0,0,0,0,0,0,0,0,0,0,0,0,0,0,0,0,0,0,0,0,0,0,0,0,0,0,0,0,0,0,0,0,0,0,0,0,4.5151,4.5152,0,4.5194,4.5195,4.5195,4.5217,4.5217,4.5217,4.5218,4.5258,4.5259,4.526,0,0,0,0,0,0,0,0,0,0,0,0,0,4.5087,4.5088,4.5151,4.5152,4.5152,4.5194,4.5195,4.5195,4.5217,4.5217,4.5217,4.5218,4.5258,4.5259,4.5261,0,0,0,0,0,0,0,0,0,0,0,0,0,4.5121,4.5088,4.5151,4.5168,4.517,4.5194,4.5195,4.5195,4.5217,4.5217,4.5217,4.5218,4.5258,4.5259,4.5261,4.5269,0,0,4.5266,4.5266,0,0,0,0,0,0,0,0,4.5119,4.5123,4.5165,4.5167,4.517,4.5201,4.5187,4.522,4.5217,4.5199,4.5218,4.5218,4.5239,4.5242,4.525,4.5271,4.5273,4.5266,4.5267,4.5267,4.5268,0,0,0,0,0,0,0,4.5116,4.5121,4.5168,4.5166,4.5169,4.5174,4.5179,4.5193,4.5218,4.5201,4.5203,4.5208,4.524,4.5248,4.5251,4.5274,4.5266,4.5267,4.5268,4.5269,4.5306,4.5306,0,0,0,0,0,0,4.5112,4.5119,4.5167,4.5169,4.5144,4.5175,4.518,4.519,4.5218,4.5222,4.5208,4.5209,4.5246,4.5249,4.5252,4.5266,4.5267,4.5269,4.527,4.5306,4.5306,4.5306,0,0,0,0,0,0,4.511,4.5116,4.5165,4.5145,4.5152,4.5176,4.5187,4.5191,4.52,4.5223,4.5227,4.5212,4.5246,4.525,4.5266,4.5267,4.5269,4.5271,4.5306,4.5306,4.5306,4.5291,0,0,0,0,0,0,4.5108,4.5115,4.5119,4.5145,4.5153,4.5178,4.5187,4.5192,4.5203,4.5204,4.5228,4.5232,4.5246,4.5263,4.5267,4.5269,4.5272,4.5306,4.5306,4.5306,4.5291,4.5291,4.529,0,0,0,0,0,4.5106,4.5111,4.5119,4.5124,4.5158,4.5178,4.5182,4.5199,4.5203,4.5207,4.5222,4.5231,4.5267,4.5265,4.5269,4.5272,4.5306,4.5306,4.5306,4.5292,4.5291,4.529,0,0,0,0,0,0,4.5083,4.5115,4.5123,4.5138,4.5155,4.5182,4.5187,4.5197,4.5213,4.5214,4.5233,4.5238,4.5252,4.5264,4.5261,4.5283,4.5287,4.5288,4.5275,4.5274,4.5273,4.527,4.5273,0,0,0,0,0,4.508,4.5094,4.5121,4.5131,4.514,4.5162,4.5171,4.5183,4.5201,4.5208,4.5225,4.5241,4.5257,4.5266,4.5281,4.5294,4.5299,4.5298,4.5297,4.5296,4.5297,4.5306,4.5306,4.5307,4.5307,4.5307,0,0,4.5073,4.5092,4.51,4.5127,4.5142,4.5156,4.5168,4.5182,4.5192,4.521,4.5226,4.5239,4.5259,4.5274,4.5281,4.5284,4.5298,4.5297,4.5296,4.5297,4.5306,4.5306,4.5306,4.5307,4.5307,4.5307,0,0,4.5068,4.5084,4.5095,4.511,4.5133,4.5148,4.5151,4.5177,4.5186,4.5203,4.5218,4.523,4.5255,4.527,4.528,4.5283,4.5293,4.5288,4.5283,4.5292,4.5291,4.5291,4.5293,4.5294,4.5288,4.5288,4.5288,0,4.5056,4.5079,4.5099,4.5113,4.5125,4.5144,4.5155,4.5169,4.5195,4.5203,4.5206,4.524,4.5254,4.5273,4.5274,4.5282,4.5286,4.5285,4.529,4.529,4.5291,4.5292,4.5293,4.5288,4.5288,4.5288,4.5288,0,4.5064,4.5079,4.5085,4.5112,4.5125,4.5138,4.516,4.517,4.5182,4.5196,4.5214,4.5233,4.5253,4.5258,4.5268,4.5279,4.528,4.5286,4.5291,4.5289,4.5292,4.5292,4.5286,4.5287,4.5287,4.5287,0,0,4.5043,4.5084,4.5085,4.5099,4.5127,4.5139,4.5153,4.5174,4.5183,4.5201,4.5213,4.5236,4.5242,4.5254,4.5267,4.5274,4.5277,4.528,4.5281,4.5279,4.5291,4.5286,4.5286,4.5284,4.5284,4.5284,4.5289,0,4.5043,4.507,4.5089,4.5108,4.5124,4.5143,4.5155,4.5174,4.5188,4.5203,4.5219,4.5235,4.5242,4.525,4.5258,4.5275,4.5279,4.5275,4.5295,4.5295,4.5289,4.5287,4.5282,4.5285,4.529,4.529,4.529,0,4.5045,4.5064,4.5086,4.5114,4.5121,4.5132,4.5154,4.5168,4.519,4.52,4.5215,4.5228,4.5244,4.5248,4.527,4.5266,4.5276,4.5286,4.5286,4.5289,4.5292,4.5289,4.5287,4.5287,4.5292,4.5291,4.5291,0,4.5029,4.506,4.5078,4.5088,4.5122,4.5129,4.5143,4.5165,4.5177,4.5196,4.5205,4.5224,4.5235,4.525,4.5269,4.527,4.529,4.5295,4.5298,4.5298,4.5301,4.53,4.53,4.5307,4.5307,4.5307,4.5307,0,4.5026,4.5038,4.5071,4.5082,4.5097,4.5119,4.5133,4.5149,4.5169,4.5182,4.52,4.5212,4.5237,4.5252,4.5267,4.5283,4.5288,4.5296,4.53,4.5295,4.5294,4.5301,4.5301,4.5307,4.5307,4.5307,4.5307,0,4.501,4.5032,4.5053,4.5084,4.5092,4.5102,4.5128,4.5139,4.5156,4.5173,4.5178,4.5204,4.5223,4.5244,4.527,4.528,4.5296,4.5301,4.5289,4.5291,4.5293,4.5293,4.5297,4.5299,4.5305,4.5305,4.5305,0,4.5006,4.5017,4.505,4.5061,4.5075,4.5093,4.5106,4.513,4.5142,4.5169,4.5177,4.5198,4.5216,4.5246,4.5267,4.5287,4.5293,4.5293,4.5296,4.5291,4.5293,4.5293,4.5294,4.5292,4.5292,4.5292,4.5291,0,4.4998,4.5009,4.5028,4.5052,4.5068,4.5087,4.5107,4.5115,4.5142,4.5156,4.5177,4.5191,4.5219,4.5239,4.5262,4.5276,4.5288,4.5291,4.5293,4.5287,4.528,4.5285,4.5286,4.529,4.529,4.5291,4.5291,4.5291,4.4988,4.4999,4.5025,4.5046,4.5064,4.5083,4.5095,4.5115,4.5133,4.5158,4.5171,4.5192,4.5215,4.5248,4.5261,4.5278,4.5282,4.5284,4.5285,4.5285,4.5284,4.5278,4.5282,4.5282,4.5282,4.5282,4.5282,0,4.4981,4.5,4.5019,4.5047,4.5064,4.5076,4.5099,4.5112,4.5131,4.5152,4.5171,4.5195,4.5216,4.5239,4.5262,4.5271,4.5277,4.5276,4.5275,4.5278,4.5279,4.5276,4.527,4.527,4.527,4.527,4.527,4.527,4.498,4.4999,4.5014,4.5043,4.5061,4.5083,4.5095,4.5113,4.513,4.5158,4.5176,4.5191,4.5214,4.5238,4.5258,4.5264,4.5271,4.5269,4.5277,4.5277,4.5278,4.5279,4.5276,4.527,4.527,4.5274,4.5274,4.5274]}]]